SIA962 WSSS-WIII

Flight info

Callsign SIA962
Flight time 1h 16m
Altitude 33000
Route ANITO8B ANITO B470 BUNIK
Aircraft A359/H-SDE2E3GHIJ3J4J5LM1ORWXY/LB1D1

Departure

Time 2026-05-07 07:23
Airport Singapore Changi Airport (WSSS)

Arrival

Time 2026-05-07 08:39
Airport Soekarno-Hatta International Airport (WIII)
Time Latitude Longitude Altitude Speed Heading
2026-05-07 07:06 1.35786 103.99402 37 ft 0 kts 192°
2026-05-07 07:13 1.35791 103.99403 64 ft 3 kts 192°
2026-05-07 07:13 1.35817 103.99409 37 ft 4 kts 192°
2026-05-07 07:14 1.35844 103.99415 35 ft 4 kts 192°
2026-05-07 07:14 1.35865 103.99418 33 ft 4 kts 171°
2026-05-07 07:14 1.35886 103.99408 34 ft 4 kts 127°
2026-05-07 07:14 1.35895 103.99393 34 ft 3 kts 113°
2026-05-07 07:15 1.35894 103.99396 34 ft 0 kts 113°
2026-05-07 07:17 1.35893 103.99398 34 ft 1 kts 113°
2026-05-07 07:18 1.35886 103.99414 34 ft 5 kts 113°
2026-05-07 07:18 1.35867 103.99459 37 ft 9 kts 113°
2026-05-07 07:18 1.35848 103.99527 37 ft 10 kts 78°
2026-05-07 07:18 1.35888 103.99569 37 ft 9 kts 23°
2026-05-07 07:19 1.35952 103.99596 37 ft 13 kts 23°
2026-05-07 07:19 1.36077 103.99649 37 ft 24 kts 23°
2026-05-07 07:19 1.36159 103.99684 37 ft 8 kts 23°
2026-05-07 07:19 1.36224 103.99715 37 ft 12 kts 36°
2026-05-07 07:20 1.36241 103.99764 37 ft 0 kts 103°
2026-05-07 07:21 1.36238 103.99775 37 ft 4 kts 103°
2026-05-07 07:21 1.36224 103.99812 37 ft 8 kts 112°
2026-05-07 07:21 1.36189 103.99869 37 ft 11 kts 146°
2026-05-07 07:22 1.36117 103.99863 37 ft 6 kts 201°
2026-05-07 07:22 1.36116 103.99863 37 ft 0 kts 201°
2026-05-07 07:22 1.36088 103.99852 37 ft 28 kts 201°
2026-05-07 07:22 1.35612 103.99651 37 ft 117 kts 202°
2026-05-07 07:23 1.34635 103.99240 100 ft 182 kts 202°
2026-05-07 07:23 1.33396 103.98736 775 ft 198 kts 201°
2026-05-07 07:23 1.32070 103.98193 1620 ft 214 kts 202°
2026-05-07 07:23 1.30620 103.97565 2158 ft 241 kts 203°
2026-05-07 07:24 1.29027 103.96878 2960 ft 255 kts 203°
2026-05-07 07:24 1.27396 103.96182 3900 ft 262 kts 203°
2026-05-07 07:24 1.25692 103.95465 4837 ft 269 kts 202°
2026-05-07 07:24 1.23930 103.94783 5550 ft 274 kts 196°
2026-05-07 07:25 1.20160 103.94998 6013 ft 276 kts 165°
2026-05-07 07:25 1.18358 103.95683 6229 ft 279 kts 152°
2026-05-07 07:25 1.16645 103.96626 7042 ft 282 kts 149°
2026-05-07 07:26 1.14955 103.97618 8171 ft 282 kts 148°
2026-05-07 07:26 1.13293 103.98619 9295 ft 283 kts 147°
2026-05-07 07:26 1.11602 103.99653 10287 ft 289 kts 147°
2026-05-07 07:26 1.09832 104.00746 10837 ft 311 kts 147°
2026-05-07 07:27 1.07929 104.01926 11355 ft 331 kts 147°
2026-05-07 07:27 1.05943 104.03159 12111 ft 340 kts 147°
2026-05-07 07:27 1.03915 104.04419 12945 ft 347 kts 147°
2026-05-07 07:27 1.01844 104.05706 13754 ft 353 kts 147°
2026-05-07 07:28 0.99743 104.07012 14521 ft 358 kts 147°
2026-05-07 07:28 0.97611 104.08337 15284 ft 363 kts 147°
2026-05-07 07:28 0.95486 104.09659 16024 ft 367 kts 147°
2026-05-07 07:28 0.93304 104.11016 16769 ft 372 kts 147°
2026-05-07 07:29 0.91099 104.12388 17490 ft 376 kts 147°
2026-05-07 07:29 0.88867 104.13776 18191 ft 380 kts 147°
2026-05-07 07:29 0.86605 104.15183 18800 ft 385 kts 147°
2026-05-07 07:29 0.84323 104.16603 19426 ft 389 kts 147°
2026-05-07 07:30 0.82013 104.18039 20061 ft 392 kts 147°
2026-05-07 07:30 0.79687 104.19486 20703 ft 397 kts 146°
2026-05-07 07:30 0.77360 104.20933 21337 ft 401 kts 146°
2026-05-07 07:30 0.74984 104.22411 21985 ft 405 kts 146°
2026-05-07 07:31 0.72583 104.23904 22641 ft 409 kts 146°
2026-05-07 07:31 0.70159 104.25412 23243 ft 413 kts 146°
2026-05-07 07:31 0.67709 104.26936 23784 ft 417 kts 146°
2026-05-07 07:31 0.65238 104.28473 24306 ft 420 kts 146°
2026-05-07 07:32 0.62744 104.30024 24856 ft 424 kts 147°
2026-05-07 07:32 0.60233 104.31586 25441 ft 427 kts 147°
2026-05-07 07:32 0.57702 104.33159 26029 ft 431 kts 147°
2026-05-07 07:32 0.55178 104.34729 26623 ft 435 kts 147°
2026-05-07 07:33 0.52602 104.36331 27235 ft 438 kts 147°
2026-05-07 07:33 0.50001 104.37948 27820 ft 442 kts 147°
2026-05-07 07:33 0.47377 104.39580 28424 ft 446 kts 147°
2026-05-07 07:33 0.44727 104.41228 29016 ft 450 kts 147°
2026-05-07 07:34 0.42059 104.42887 29578 ft 454 kts 147°
2026-05-07 07:34 0.39365 104.44562 30088 ft 458 kts 147°
2026-05-07 07:34 0.36644 104.46255 30568 ft 462 kts 147°
2026-05-07 07:34 0.33943 104.47934 31034 ft 465 kts 147°
2026-05-07 07:35 0.31187 104.49648 31514 ft 468 kts 147°
2026-05-07 07:35 0.28415 104.51371 31979 ft 471 kts 147°
2026-05-07 07:35 0.25621 104.53109 32433 ft 474 kts 147°
2026-05-07 07:35 0.22813 104.54855 32737 ft 476 kts 147°
2026-05-07 07:36 0.20037 104.56580 32787 ft 461 kts 147°
2026-05-07 07:36 0.17366 104.58239 32795 ft 444 kts 147°
2026-05-07 07:36 0.14766 104.59857 32796 ft 443 kts 147°
2026-05-07 07:36 0.12112 104.61509 32795 ft 457 kts 147°
2026-05-07 07:37 0.09367 104.63217 32801 ft 471 kts 147°
2026-05-07 07:37 0.03803 104.66677 32797 ft 476 kts 147°
2026-05-07 07:38 -0.01855 104.70195 32795 ft 481 kts 147°
2026-05-07 07:38 -0.07550 104.73736 32792 ft 482 kts 147°
2026-05-07 07:39 -0.13249 104.77279 32795 ft 483 kts 147°
2026-05-07 07:39 -0.18913 104.80802 32793 ft 483 kts 147°
2026-05-07 07:40 -0.24604 104.84341 32793 ft 483 kts 147°
2026-05-07 07:40 -0.30302 104.87905 32792 ft 482 kts 146°
2026-05-07 07:41 -0.35858 104.91647 32792 ft 482 kts 144°
2026-05-07 07:41 -0.41344 104.95426 32789 ft 482 kts 144°
2026-05-07 07:42 -0.46880 104.99207 32794 ft 482 kts 144°
2026-05-07 07:42 -0.52431 105.02969 32794 ft 482 kts 144°
2026-05-07 07:43 -0.57981 105.06722 32788 ft 482 kts 144°
2026-05-07 07:43 -0.63536 105.10479 32789 ft 482 kts 144°
2026-05-07 07:44 -0.69048 105.14208 32789 ft 482 kts 144°
2026-05-07 07:44 -0.74599 105.17964 32792 ft 482 kts 144°
2026-05-07 07:45 -0.80183 105.21676 32791 ft 483 kts 148°
2026-05-07 07:45 -0.86267 105.24447 32790 ft 480 kts 157°
2026-05-07 07:46 -0.92564 105.26678 32790 ft 480 kts 159°
2026-05-07 07:46 -0.98896 105.28803 32792 ft 480 kts 160°
2026-05-07 07:47 -1.05154 105.30927 32787 ft 477 kts 159°
2026-05-07 07:47 -1.11423 105.33075 32793 ft 476 kts 159°
2026-05-07 07:48 -1.17685 105.35226 32793 ft 476 kts 159°
2026-05-07 07:48 -1.23945 105.37378 32786 ft 476 kts 159°
2026-05-07 07:49 -1.30204 105.39532 32790 ft 475 kts 159°
2026-05-07 07:49 -1.36414 105.41668 32787 ft 476 kts 159°
2026-05-07 07:50 -1.42679 105.43823 32791 ft 476 kts 159°
2026-05-07 07:50 -1.48939 105.45977 32790 ft 476 kts 159°
2026-05-07 07:51 -1.55219 105.48137 32784 ft 478 kts 159°
2026-05-07 07:51 -1.61513 105.50303 32789 ft 478 kts 159°
2026-05-07 07:52 -1.67808 105.52470 32784 ft 479 kts 159°
2026-05-07 07:52 -1.74065 105.54622 32789 ft 479 kts 159°
2026-05-07 07:53 -1.80360 105.56789 32786 ft 479 kts 159°
2026-05-07 07:53 -1.86659 105.58956 32783 ft 479 kts 159°
2026-05-07 07:54 -1.92972 105.61130 32783 ft 480 kts 159°
2026-05-07 07:54 -1.99289 105.63304 32782 ft 480 kts 159°
2026-05-07 07:55 -2.05605 105.65478 32787 ft 480 kts 159°
2026-05-07 07:55 -2.11879 105.67638 32787 ft 480 kts 159°
2026-05-07 07:56 -2.18194 105.69812 32784 ft 480 kts 159°
2026-05-07 07:56 -2.24512 105.71988 32786 ft 480 kts 159°
2026-05-07 07:57 -2.30831 105.74164 32785 ft 481 kts 159°
2026-05-07 07:57 -2.37155 105.76342 32790 ft 481 kts 159°
2026-05-07 07:58 -2.43480 105.78521 32786 ft 481 kts 159°
2026-05-07 07:58 -2.49760 105.80684 32788 ft 481 kts 159°
2026-05-07 07:59 -2.56088 105.82864 32793 ft 481 kts 159°
2026-05-07 07:59 -2.62406 105.85041 32795 ft 480 kts 159°
2026-05-07 08:00 -2.68724 105.87218 32802 ft 480 kts 159°
2026-05-07 08:00 -2.75042 105.89395 32801 ft 480 kts 159°
2026-05-07 08:01 -2.81320 105.91559 32807 ft 480 kts 159°
2026-05-07 08:01 -2.87637 105.93736 32806 ft 480 kts 159°
2026-05-07 08:02 -2.93953 105.95914 32806 ft 480 kts 159°
2026-05-07 08:02 -3.00277 105.98094 32808 ft 481 kts 159°
2026-05-07 08:03 -3.06607 106.00277 32804 ft 481 kts 159°
2026-05-07 08:03 -3.12943 106.02462 32803 ft 482 kts 159°
2026-05-07 08:04 -3.19239 106.04633 32809 ft 482 kts 159°
2026-05-07 08:04 -3.25584 106.06822 32803 ft 482 kts 159°
2026-05-07 08:05 -3.31923 106.09009 32803 ft 482 kts 159°
2026-05-07 08:05 -3.38262 106.11196 32805 ft 482 kts 159°
2026-05-07 08:06 -3.44605 106.13385 32801 ft 482 kts 159°
2026-05-07 08:06 -3.50903 106.15559 32801 ft 482 kts 159°
2026-05-07 08:07 -3.57243 106.17747 32800 ft 482 kts 159°
2026-05-07 08:07 -3.63586 106.19937 32801 ft 482 kts 159°
2026-05-07 08:08 -3.69933 106.22129 32801 ft 483 kts 160°
2026-05-07 08:08 -3.76296 106.24326 32804 ft 484 kts 159°
2026-05-07 08:09 -3.82624 106.26512 32797 ft 484 kts 160°
2026-05-07 08:09 -3.88991 106.28711 32802 ft 484 kts 159°
2026-05-07 08:10 -3.95359 106.30911 32803 ft 484 kts 159°
2026-05-07 08:10 -4.01726 106.33112 32801 ft 484 kts 160°
2026-05-07 08:11 -4.08095 106.35313 32801 ft 484 kts 159°
2026-05-07 08:11 -4.14470 106.37517 32799 ft 485 kts 159°
2026-05-07 08:12 -4.20845 106.39722 32799 ft 485 kts 159°
2026-05-07 08:12 -4.27174 106.41909 32798 ft 484 kts 160°
2026-05-07 08:13 -4.33545 106.44113 32801 ft 485 kts 160°
2026-05-07 08:13 -4.39923 106.46321 32799 ft 485 kts 160°
2026-05-07 08:14 -4.46306 106.48529 32798 ft 486 kts 160°
2026-05-07 08:14 -4.52710 106.50744 32805 ft 487 kts 160°
2026-05-07 08:15 -4.59074 106.52947 32797 ft 486 kts 160°
2026-05-07 08:15 -4.62267 106.54051 32569 ft 485 kts 159°
2026-05-07 08:15 -4.65460 106.55157 32339 ft 486 kts 159°
2026-05-07 08:15 -4.68665 106.56267 32087 ft 488 kts 160°
2026-05-07 08:16 -4.71874 106.57378 31846 ft 488 kts 160°
2026-05-07 08:16 -4.75084 106.58490 31613 ft 488 kts 160°
2026-05-07 08:16 -4.78299 106.59602 31400 ft 492 kts 160°
2026-05-07 08:16 -4.81597 106.60541 31107 ft 490 kts 167°
2026-05-07 08:17 -4.84972 106.61017 30407 ft 490 kts 175°
2026-05-07 08:17 -4.88364 106.60927 29883 ft 486 kts 185°
2026-05-07 08:17 -4.91625 106.60324 29266 ft 481 kts 192°
2026-05-07 08:17 -4.94860 106.59517 28561 ft 478 kts 193°
2026-05-07 08:18 -4.98067 106.58685 27944 ft 473 kts 193°
2026-05-07 08:18 -5.01229 106.57863 27230 ft 464 kts 193°
2026-05-07 08:18 -5.04377 106.57050 26154 ft 471 kts 193°
2026-05-07 08:18 -5.07547 106.56234 25430 ft 469 kts 193°
2026-05-07 08:19 -5.10698 106.55422 24771 ft 466 kts 193°
2026-05-07 08:19 -5.13827 106.54618 24191 ft 461 kts 193°
2026-05-07 08:19 -5.16910 106.53825 23668 ft 455 kts 193°
2026-05-07 08:19 -5.19965 106.53040 22979 ft 452 kts 193°
2026-05-07 08:20 -5.22999 106.52261 22289 ft 447 kts 193°
2026-05-07 08:20 -5.25991 106.51492 21638 ft 441 kts 193°
2026-05-07 08:20 -5.28909 106.50741 20957 ft 437 kts 193°
2026-05-07 08:20 -5.31845 106.49987 20298 ft 433 kts 193°
2026-05-07 08:21 -5.34743 106.49242 19667 ft 427 kts 193°
2026-05-07 08:21 -5.37604 106.48507 19023 ft 423 kts 193°
2026-05-07 08:21 -5.40443 106.47777 18427 ft 418 kts 193°
2026-05-07 08:21 -5.43243 106.47057 17762 ft 413 kts 193°
2026-05-07 08:22 -5.45997 106.46348 16858 ft 404 kts 192°
2026-05-07 08:22 -5.48705 106.45652 15697 ft 399 kts 193°
2026-05-07 08:22 -5.51400 106.44960 14841 ft 399 kts 193°
2026-05-07 08:22 -5.54028 106.44284 14218 ft 392 kts 193°
2026-05-07 08:23 -5.56653 106.43609 13481 ft 387 kts 193°
2026-05-07 08:23 -5.59246 106.42942 12660 ft 382 kts 193°
2026-05-07 08:23 -5.61807 106.42283 11839 ft 377 kts 193°
2026-05-07 08:23 -5.64331 106.41634 11074 ft 372 kts 193°
2026-05-07 08:24 -5.66801 106.40998 10621 ft 358 kts 192°
2026-05-07 08:24 -5.69117 106.40399 10213 ft 330 kts 192°
2026-05-07 08:24 -5.71261 106.39845 9790 ft 308 kts 192°
2026-05-07 08:24 -5.73278 106.39326 9180 ft 301 kts 192°
2026-05-07 08:25 -5.75272 106.38814 9016 ft 292 kts 192°
2026-05-07 08:25 -5.77257 106.38305 8889 ft 292 kts 192°
2026-05-07 08:25 -5.79227 106.37799 8760 ft 292 kts 192°
2026-05-07 08:25 -5.81191 106.37295 8647 ft 291 kts 192°
2026-05-07 08:26 -5.85101 106.36289 8145 ft 289 kts 192°
2026-05-07 08:26 -5.87046 106.35789 7911 ft 288 kts 192°
2026-05-07 08:26 -5.88983 106.35290 7514 ft 286 kts 192°
2026-05-07 08:27 -5.90876 106.34802 7158 ft 284 kts 192°
2026-05-07 08:27 -5.92789 106.34310 7031 ft 284 kts 192°
2026-05-07 08:27 -5.94646 106.33830 7009 ft 266 kts 192°
2026-05-07 08:27 -5.96389 106.33379 7013 ft 253 kts 192°
2026-05-07 08:28 -5.98083 106.32943 7018 ft 251 kts 192°
2026-05-07 08:28 -5.99772 106.32509 7007 ft 251 kts 192°
2026-05-07 08:28 -6.01463 106.32075 6722 ft 250 kts 192°
2026-05-07 08:28 -6.03145 106.31644 6399 ft 249 kts 192°
2026-05-07 08:29 -6.04844 106.31460 6040 ft 244 kts 173°
2026-05-07 08:29 -6.06498 106.31682 5695 ft 241 kts 168°
2026-05-07 08:29 -6.07679 106.31895 5453 ft 240 kts 168°
2026-05-07 08:29 -6.09287 106.32190 5285 ft 231 kts 168°
2026-05-07 08:30 -6.10842 106.32470 5132 ft 223 kts 167°
2026-05-07 08:30 -6.12348 106.32739 4895 ft 217 kts 167°
2026-05-07 08:30 -6.13817 106.33002 4578 ft 213 kts 168°
2026-05-07 08:30 -6.15275 106.33261 4162 ft 213 kts 167°
2026-05-07 08:31 -6.16728 106.33519 4025 ft 209 kts 168°
2026-05-07 08:31 -6.18135 106.33768 4011 ft 203 kts 168°
2026-05-07 08:31 -6.19519 106.34034 4012 ft 202 kts 164°
2026-05-07 08:31 -6.20739 106.34682 4012 ft 200 kts 135°
2026-05-07 08:32 -6.21585 106.35789 4011 ft 197 kts 122°
2026-05-07 08:32 -6.22287 106.36936 4009 ft 194 kts 120°
2026-05-07 08:32 -6.22980 106.38091 4012 ft 193 kts 120°
2026-05-07 08:32 -6.23555 106.39297 4009 ft 194 kts 101°
2026-05-07 08:33 -6.23518 106.40643 4011 ft 193 kts 79°
2026-05-07 08:33 -6.23138 106.41937 4010 ft 192 kts 70°
2026-05-07 08:33 -6.22650 106.43187 4004 ft 191 kts 68°
2026-05-07 08:33 -6.22157 106.44424 3981 ft 191 kts 68°
2026-05-07 08:34 -6.21671 106.45662 3801 ft 191 kts 69°
2026-05-07 08:34 -6.21182 106.46907 3559 ft 191 kts 68°
2026-05-07 08:34 -6.20704 106.48110 3276 ft 181 kts 68°
2026-05-07 08:34 -6.20248 106.49259 3029 ft 171 kts 68°
2026-05-07 08:35 -6.19816 106.50344 2801 ft 167 kts 71°
2026-05-07 08:35 -6.19391 106.51419 2611 ft 165 kts 70°
2026-05-07 08:35 -6.18969 106.52485 2390 ft 164 kts 70°
2026-05-07 08:35 -6.18555 106.53528 2196 ft 156 kts 70°
2026-05-07 08:36 -6.18158 106.54530 1992 ft 152 kts 70°
2026-05-07 08:36 -6.17769 106.55512 1789 ft 151 kts 69°
2026-05-07 08:36 -6.17392 106.56463 1605 ft 141 kts 68°
2026-05-07 08:36 -6.17041 106.57345 1426 ft 131 kts 70°
2026-05-07 08:37 -6.16711 106.58182 1271 ft 131 kts 67°
2026-05-07 08:37 -6.16374 106.59028 1103 ft 132 kts 68°
2026-05-07 08:37 -6.16037 106.59878 940 ft 130 kts 67°
2026-05-07 08:37 -6.15703 106.60722 777 ft 129 kts 66°
2026-05-07 08:38 -6.15365 106.61537 603 ft 124 kts 68°
2026-05-07 08:38 -6.15042 106.62335 492 ft 125 kts 66°
2026-05-07 08:38 -6.14724 106.63148 323 ft 125 kts 67°
2026-05-07 08:38 -6.14413 106.63935 167 ft 118 kts 67°
2026-05-07 08:39 -6.14117 106.64691 56 ft 112 kts 67°
2026-05-07 08:39 -6.13855 106.65345 36 ft 88 kts 69°
2026-05-07 08:39 -6.13664 106.65826 34 ft 62 kts 69°
2026-05-07 08:39 -6.13532 106.66160 33 ft 40 kts 67°
2026-05-07 08:40 -6.13453 106.66355 32 ft 26 kts 68°
2026-05-07 08:40 -6.13382 106.66516 35 ft 25 kts 58°
2026-05-07 08:40 -6.13283 106.66635 33 ft 6 kts 40°
2026-05-07 08:40 -6.13266 106.66649 33 ft 9 kts 40°
2026-05-07 08:41 -6.13204 106.66692 32 ft 10 kts 19°
2026-05-07 08:41 -6.13127 106.66699 9 ft 10 kts 18°
2026-05-07 08:41 -6.13100 106.66747 31 ft 10 kts 69°
2026-05-07 08:41 -6.13070 106.66826 31 ft 14 kts 67°
2026-05-07 08:42 -6.13026 106.66932 30 ft 19 kts 68°
2026-05-07 08:42 -6.12973 106.67065 30 ft 22 kts 68°
2026-05-07 08:42 -6.12911 106.67221 30 ft 26 kts 69°
2026-05-07 08:42 -6.12843 106.67399 29 ft 29 kts 69°
2026-05-07 08:43 -6.12763 106.67553 29 ft 23 kts 58°
2026-05-07 08:43 -6.12674 106.67699 29 ft 26 kts 57°
2026-05-07 08:43 -6.12539 106.67821 29 ft 28 kts 26°
2026-05-07 08:43 -6.12342 106.67847 29 ft 30 kts 349°
2026-05-07 08:44 -6.12153 106.67780 29 ft 25 kts 339°
2026-05-07 08:44 -6.11981 106.67713 29 ft 28 kts 339°
2026-05-07 08:44 -6.11789 106.67635 29 ft 31 kts 338°
2026-05-07 08:44 -6.11626 106.67570 29 ft 15 kts 339°
2026-05-07 08:45 -6.11516 106.67527 29 ft 19 kts 339°
2026-05-07 08:45 -6.11377 106.67473 29 ft 23 kts 339°
2026-05-07 08:45 -6.11231 106.67414 29 ft 24 kts 336°
2026-05-07 08:45 -6.11110 106.67355 29 ft 8 kts 319°
2026-05-07 08:46 -6.11080 106.67292 29 ft 12 kts 278°
2026-05-07 08:46 -6.11097 106.67194 29 ft 16 kts 255°
2026-05-07 08:46 -6.11124 106.67079 29 ft 16 kts 257°
2026-05-07 08:46 -6.11129 106.67058 29 ft 2 kts 257°
2026-05-07 08:47 -6.11137 106.67025 29 ft 7 kts 255°
2026-05-07 08:47 -6.11158 106.66960 29 ft 12 kts 249°
2026-05-07 08:47 -6.11172 106.66925 29 ft 0 kts 248°
2026-05-07 08:49 -6.11181 106.66901 29 ft 13 kts 246°
2026-05-07 08:49 -6.11239 106.66879 30 ft 10 kts 175°
2026-05-07 08:49 -6.11316 106.66906 30 ft 14 kts 158°
2026-05-07 08:50 -6.11416 106.66940 30 ft 15 kts 176°
2026-05-07 08:50 -6.11486 106.66869 30 ft 16 kts 249°
2026-05-07 08:50 -6.11511 106.66802 30 ft 1 kts 249°
2026-05-07 08:50 -6.11514 106.66792 30 ft 4 kts 249°
2026-05-07 08:51 -6.11545 106.66713 31 ft 12 kts 248°
2026-05-07 08:51 -6.11567 106.66661 31 ft 3 kts 243°
2026-05-07 08:51 -6.11585 106.66647 31 ft 2 kts 194°
2026-05-07 08:51 -6.11606 106.66652 31 ft 5 kts 161°
2026-05-07 08:52 -6.11643 106.66667 31 ft 2 kts 159°
2026-05-07 08:52 -6.11650 106.66669 31 ft 2 kts 159°
2026-05-07 08:52 -6.11667 106.66676 31 ft 0 kts 159°